Regional Weather Roundup
Issued by NWS Cleveland, OH

Home | Current Version | Previous Version | Text Only | Print | Product List | Glossary Off
Versions: 1 2 3 4 5 6 7 8 9 10 11 12 13 14 15 16 17 18 19 20 21 22 23 24 25 26 27 28 29 30 31 32 33 34 35 36 37 38 39 40 41 42 43 44 45 46 47 48 49 50

000
ASUS41 KCLE 161100
RWRCLE
OHIO REGIONAL WEATHER ROUNDUP
NATIONAL WEATHER SERVICE WILMINGTON, OH
600 AM EST MON JAN 16 2017

NOTE: "FAIR" INDICATES FEW OR NO CLOUDS BELOW 12,000 FEET WITH NO
SIGNIFICANT WEATHER AND/OR OBSTRUCTIONS TO VISIBILITY.

OHZ001>008-015>018-024>027-034-035-043-044-161200-
   NORTHWEST OHIO

CITY           SKY/WX    TMP DP  RH WIND       PRES   REMARKS
DEFIANCE       CLOUDY    31  26  82 CALM      30.32S HAZE
FINDLAY        CLOUDY    32  26  78 E3        30.30S HAZE
TOLEDO EXPRESS CLOUDY    26  25  96 CALM      30.32S FOG
TOLEDO EXEC    CLOUDY    28  25  88 CALM      30.34S FOG
LIMA           CLOUDY    32  31  96 SE3       30.29S FOG
$$

OHZ009>014-019>023-028>033-038-089-161200-
   NORTHEAST OHIO

CITY           SKY/WX    TMP DP  RH WIND       PRES   REMARKS
CLE-HOPKINS    MOCLDY    25  19  78 S8        30.37R WCI  16
CLE-LAKEFRONT  FAIR      27  21  78 SE9       30.34S WCI  18
CUY CO. ARPT   NOT AVBL
LORAIN-ELYRIA  MOCLDY    25  20  81 CALM      30.34F HAZE
ASHTABULA      NOT AVBL
AKRON-CANTON   MOCLDY    28  20  71 SE6       30.33S WCI  22
WOOSTER        NOT AVBL
MANSFIELD      MOCLDY    30  26  85 SE5       30.30F WCI  25
YOUNGSTOWN     MOCLDY    20  16  84 E7        30.33S WCI  11
$$

OHZ042-051>053-060>062-070>072-077>081-161200-
  SOUTHWEST OHIO

CITY           SKY/WX    TMP DP  RH WIND       PRES   REMARKS
CINC-COVINGTON FOG       38  38 100 E6        30.27R VSB 1/2
CINC-LUNKEN    CLOUDY    39  39 100 NE5       30.30F FOG
HAMILTON       CLOUDY    39  37  92 E3        30.30S FOG
DAYTON         NOT AVBL
WRIGHT-PAT AFB CLOUDY    36  35  99 E5        30.29S
DAYTON GENERAL CLOUDY    36  34  92 E7        30.28S FOG
WILMINGTON     CLOUDY    35  35 100 E5        30.29S FOG
$$

OHZ036-037-039>041-045>050-054>059-063>069-073>076-082>088-161200-
  CENTRAL AND SOUTHEAST OHIO

CITY           SKY/WX    TMP DP  RH WIND       PRES   REMARKS
COLUMBUS       CLOUDY    36  30  79 CALM      30.31S
OSU AIRPORT    CLOUDY    32  31  96 NE3       30.30F FOG
BOLTON FIELD   NOT AVBL
RICKENBACK AFB NOT AVBL
NEWARK         CLOUDY    32  28  85 CALM      30.31F
MARION         MOCLDY    29  26  89 SE3       30.31S FOG
LANCASTER      CLOUDY    36  32  85 SE3       30.31F FOG
ZANESVILLE     CLOUDY    32  28  85 CALM      30.32S FOG
NEW PHILLY     FAIR      28  26  92 CALM      30.35F
$$




USA.gov is the U.S. government's official web portal to all federal, state and local government web resources and services.